Terminal Aerodrome Forecast
Issued by NWS

Home | Current Version | Previous Version | Text Only | Print | Product List | Glossary On
Versions: 1 2 3 4 5 6 7 8 9 10 11 12 13 14 15 16
000
FTUS46 KSEW 161300 AAA
TAFHQM
TAF AMD
KHQM 161318Z 1613/1712 17007KT P6SM SCT010 BKN025 OVC120
      TEMPO 1613/1617 5SM BR BKN009 OVC025
     FM162000 23007KT P6SM BKN015 BKN150
      TEMPO 1620/1624 SCT020 BKN150
     FM171000 18008KT P6SM OVC012=

USA.gov is the U.S. government's official web portal to all federal, state and local government web resources and services.